Weather Roundup
Issued by NWS

Home | Current Version | Previous Version | Text Only | Print | Product List | Glossary On
Versions: 1 2 3 4 5 6 7 8 9 10 11 12 13 14 15 16 17 18 19 20 21 22 23 24 25 26 27 28 29 30 31 32 33 34 35 36 37 38 39 40 41 42 43 44 45 46 47 48 49 50
000
NZUS93 KARX 281910
HRRWXR

CURRENT HOURLY OBSERVATIONS ACROSS
MUCH OF THE UPPER MISSISSIPPI VALLEY
NATIONAL WEATHER SERVICE LA CROSSE WI
200 PM CDT MON JUL 28 2014


...SOUTHEAST MINNESOTA...


CITY           SKY/WX    TMP DP  RH WIND       PRES   REMARKS
ROCHESTER      PTSUNNY   70  52  52 NW8       30.19F
ROCHESTER/MAYO CLOUDY    70  46  40 NW6       30.19S
WINONA         PTSUNNY   73  50  43 NW10G18   30.17S
AUSTIN         PTSUNNY   72  54  53 N12       30.19S
ALBERT LEA     PTSUNNY   73  54  49 N9        30.20S
DODGE CENTER   MOSUNNY   72  54  53 N9        30.19S
PRESTON        PTSUNNY   68  57  67 NW8       30.19S
OWATONNA       PTSUNNY   73  48  40 NW6       30.20S
FARIBAULT      PTSUNNY   73  48  40 N5        30.20S
$$

...ELSEWHERE IN MINNESOTA...


CITY           SKY/WX    TMP DP  RH WIND       PRES   REMARKS
MINNEAPOLIS    PTSUNNY   76  48  37 N8G18     30.18F
INTNL FALLS    MOSUNNY   73  54  51 NW13      30.17S
DULUTH         MOSUNNY   73  52  47 NW12      30.16F
RED WING       PTSUNNY   73  52  46 N5        30.16F
REDWOOD FALLS  CLOUDY    72  55  55 N7        30.22F
MANKATO        CLOUDY    72  52  49 N7        30.20F
WORTHINGTON    PTSUNNY   70  57  64 N8        30.25F
FAIRMONT       CLOUDY    72  54  53 N7        30.22S
$$

...SOUTHWEST WISCONSIN...


CITY           SKY/WX    TMP DP  RH WIND       PRES   REMARKS
LA CROSSE      CLOUDY    75  49  39 NW10      30.14F
PRAIRIE DU CHI CLOUDY    72  44  37 N5        30.15S
BOSCOBEL       PTSUNNY   74  49  41 N7        30.15F
LONE ROCK      CLOUDY    76  51  41 N7        30.14F
PLATTEVILLE    MOSUNNY   72  49  44 N12G17    30.16S
FORT MC COY    PTSUNNY   73  46  38 NW9       30.15S
CAMP DOUGLAS   PTSUNNY   72  52  49 NW13G18   30.13F
VIROQUA        CLOUDY    69  49  49 N6        30.16F
WIS DELLS      CLOUDY    73  43  34 NW12G24   30.12F
$$

...ELSEWHERE IN WISCONSIN...


CITY           SKY/WX    TMP DP  RH WIND       PRES   REMARKS
MILWAUKEE      PTSUNNY   65  51  60 NE13      30.09S
MADISON        MOSUNNY   72  48  42 N10G20    30.12S
GREEN BAY      PTSUNNY   71  53  52 W5        30.06F
EAU CLAIRE     CLOUDY    72  49  44 NW7       30.15F
BLACK RVR FLS  MOCLDY    73  45  35 NW9G20    30.14F
MEDFORD        CLOUDY    66  52  61 NW10      30.14S
WAUSAU         PTSUNNY   71  49  45 N13G26    30.09S
WIS RAPIDS     CLOUDY    72  49  44 NW14G24   30.12F
MARSHFIELD     PTSUNNY   72  50  45 NW15      30.12F
RICE LAKE      CLOUDY    70  52  53 W10       30.18F
$$

...NORTHEAST IOWA...


CITY           SKY/WX    TMP DP  RH WIND       PRES   REMARKS
WATERLOO       PTSUNNY   72  54  53 N10       30.16F
DUBUQUE        PTSUNNY   69  50  50 N8        30.16S
DECORAH        CLOUDY    70  52  52 NW8       30.17S
MASON CITY     CLOUDY    73  55  53 N8        30.21F
CHARLES CITY   CLOUDY    70  54  56 N8G14     30.19F
OELWEIN        SUNNY     72  52  49 N14       30.18F
$$

...ELSEWHERE IN IOWA...


CITY           SKY/WX    TMP DP  RH WIND       PRES   REMARKS
DES MOINES     PTSUNNY   76  54  46 NW8       30.20F
IOWA CITY      PTSUNNY   74  53  48 N9G17     30.17F
FORT DODGE     PTSUNNY   70  57  64 NW5       30.23S
MARSHALLTOWN   CLOUDY    71  56  58 NW12      30.19F
CEDAR RAPIDS   MOSUNNY   73  50  44 N13G21    30.15F
$$

...NORTHERN ILLINOIS...


CITY           SKY/WX    TMP DP  RH WIND       PRES   REMARKS
CHICAGO-OHARE  MOSUNNY   71  44  37 N16G25    30.08S
DUPAGE         MOSUNNY   72  48  42 N15       30.09S
CHICAGO-MIDWAY MOSUNNY   71  43  36 N21G30    30.09R
MOLINE         MOSUNNY   72  47  40 NE13G21   30.14S
ROCKFORD       PTSUNNY   71  46  40 NE15G24   30.13S
STERLING       MOSUNNY   73  52  46 N13G18    30.13S
PEORIA         MOSUNNY   72  50  45 N12G17    30.11F
$$

NOTE: "FAIR" INDICATES FEW OR NO CLOUDS BELOW 12,000 FEET WITH NO
SIGNIFICANT WEATHER AND/OR OBSTRUCTIONS TO VISIBILITY. WIND
SPEEDS ARE IN MILES-PER-HOUR.



USA.gov is the U.S. government's official web portal to all federal, state and local government web resources and services.